Terminal Aerodrome Forecast
Issued by NWS Charleston, WV

Current Version | Previous Version | Graphics & Text | Print | Product List | Glossary On
Versions: 1 2 3 4 5 6 7 8 9 10 11 12 13 14 15 16 17 18 19 20 21 22
000
FTUS41 KRLX 090200 AAA
TAFCRW
TAF AMD
KCRW 090240Z 0903/0924 23008KT P6SM BKN045
     FM090800 23006KT 6SM BR BKN045
     FM091400 24006KT P6SM SCT045=

USA.gov is the U.S. government's official web portal to all federal, state and local government web resources and services.